Probability
0 3 26 29 26 26 29 29 26 26 26 29 32 35 35 29 29 29 29 29 26 26 26 19 23 13 13 16 16 13 10 13 16 16 13 19 19 13 16 13 13 10 19
3 3 19 26 26 32 29 29 23 29 32 29 29 26 26 19 26 23 23 26 23 26 23 16 19 13 13 16 13 10 10 13 6 6 6 6 13 16 16 13 13 3 6
3 3 13 26 29 32 32 26 29 32 29 29 23 23 23 16 23 23 23 19 19 19 19 13 23 13 13 10 13 13 10 6 6 6 3 3 3 10 10 10 16 13 6
3 3 6 23 32 32 29 29 29 32 29 23 29 26 19 16 16 19 23 23 19 19 19 19 19 13 10 10 10 6 6 3 3 0 0 3 3 10 6 10 13 10 10
6 6 6 23 26 29 29 32 32 29 19 23 19 26 19 16 16 16 16 13 19 26 23 16 16 10 10 10 6 6 3 3 0 0 0 0 3 6 6 6 13 13 13
0 6 6 23 23 23 26 29 32 29 19 19 19 19 16 13 13 19 19 13 16 19 19 19 13 10 10 6 6 3 3 3 0 0 0 3 3 6 6 6 10 13 13
0 0 6 19 23 23 23 23 23 13 16 19 19 13 13 13 13 13 16 13 16 16 13 10 10 10 6 6 6 3 3 0 0 0 0 3 3 6 6 6 10 10 13
0 0 6 13 16 16 19 23 19 13 16 16 13 13 13 13 13 13 13 13 16 16 10 10 10 10 6 6 3 3 3 0 0 0 0 3 6 6 6 6 6 13 13
0 0 3 6 10 10 10 13 13 13 10 13 10 10 10 13 13 13 13 13 13 13 10 10 10 6 6 3 3 3 0 0 0 0 0 3 3 6 6 6 10 13 13
0 3 3 3 6 6 6 6 10 10 6 6 6 6 3 3 6 10 10 10 10 6 10 10 6 6 3 3 3 3 0 0 0 0 0 3 3 6 6 6 6 6 6
0 3 3 3 3 6 6 3 3 3 3 3 3 3 3 3 3 3 3 6 6 6 10 6 6 3 3 3 3 3 0 0 0 0 0 3 6 6 6 6 6 6 6
0 3 3 3 3 3 3 0 0 0 0 0 0 0 0 0 0 0 3 3 3 6 6 3 3 3 3 0 0 0 0 0 0 0 0 3 6 6 6 6 6 6 6
0 0 3 3 3 3 3 0 0 0 0 0 0 0 0 0 0 0 0 0 0 0 3 3 3 3 0 0 0 0 0 0 0 0 0 0 6 6 3 3 6 6 6
0 0 0 3 3 3 3 0 0 0 0 0 0 0 0 0 0 0 0 0 0 0 0 0 0 0 0 0 0 0 0 0 0 0 0 0 0 3 3 3 3 3 6
0 0 0 0 3 3 3 0 0 0 0 0 0 0 0 0 0 0 0 0 0 0 0 0 0 0 0 0 0 0 0 0 0 0 0 0 0 0 3 3 3 3 6
0 0 0 0 0 0 3 3 0 0 0 0 0 0 0 0 0 0 0 0 0 0 0 0 0 0 0 0 0 0 0 0 0 0 0 0 0 0 0 3 3 3 3
0 0 0 0 0 0 0 0 0 0 0 0 0 0 0 0 0 0 0 0 0 0 0 0 0 0 0 0 0 0 0 0 0 0 0 0 0 0 0 3 3 3 3
0 0 0 0 0 0 0 0 0 0 0 0 0 0 0 0 0 0 0 0 0 0 0 0 0 0 0 0 0 0 0 0 0 0 0 0 0 0 0 0 0 3 3
0 0 0 0 0 0 0 0 0 0 0 0 0 0 0 0 0 0 0 0 0 0 0 0 0 0 0 0 0 0 0 0 0 0 0 0 0 0 0 0 0 0 0
0 0 0 0 0 0 0 0 0 0 0 0 0 0 0 0 0 0 0 0 0 0 0 0 0 0 0 0 0 0 0 0 0 0 0 0 0 0 0 0 0 0 0
0 0 0 0 0 0 0 0 0 0 0 0 0 0 0 0 0 0 0 0 0 0 0 0 0 0 0 0 0 0 0 0 0 0 0 0 0 0 0 0 0 0 0
0 0 0 0 0 0 0 0 0 0 0 0 0 0 0 0 0 0 0 0 0 0 0 0 0 0 0 0 0 0 0 0 0 0 0 0 0 0 0 0 0 0 0
0 0 0 0 0 0 0 0 0 0 0 0 0 0 0 0 0 0 0 0 0 0 0 0 0 0 0 0 0 0 0 0 0 0 0 0 0 0 0 0 0 0 0
0 0 0 0 0 0 0 0 0 0 0 0 0 0 0 0 0 0 0 0 0 0 0 0 0 0 0 0 0 0 0 0 0 0 0 0 0 0 0 0 0 0 0
0 0 0 0 0 0 0 0 0 0 0 0 0 0 0 0 0 0 0 0 0 0 0 0 0 0 0 0 0 0 0 0 0 0 0 0 0 0 0 0 0 0 0
0 0 0 0 0 0 0 0 0 0 0 0 0 0 0 0 0 0 0 0 0 0 0 0 0 0 0 0 0 0 0 0 0 0 0 0 0 0 0 0 0 0 0
Height
5828 5829 5830 5832 5833 5834 5836 5837 5838 5839 5840 5841 5842 5843 5844 5845 5845 5846 5847 5848 5848 5849 5849 5849 5849 5849 5849 5849 5850 5852 5855 5857 5858 5860 5861 5862 5863 5864 5865 5866 5867 5868 5869
5825 5826 5828 5829 5831 5832 5833 5835 5836 5837 5838 5839 5840 5841 5842 5843 5844 5845 5846 5846 5847 5847 5848 5848 5848 5848 5848 5849 5850 5852 5854 5856 5857 5859 5860 5861 5862 5863 5864 5865 5866 5867 5868
5822 5823 5825 5826 5828 5829 5831 5832 5834 5835 5836 5837 5838 5839 5840 5841 5842 5843 5844 5845 5845 5846 5847 5847 5848 5848 5848 5848 5849 5851 5853 5854 5856 5858 5859 5860 5861 5862 5863 5864 5865 5866 5867
5819 5820 5822 5823 5825 5827 5828 5829 5831 5832 5833 5835 5836 5837 5838 5839 5840 5841 5842 5843 5844 5844 5845 5846 5846 5847 5847 5848 5849 5850 5852 5853 5855 5856 5858 5859 5860 5861 5862 5862 5864 5865 5866
5815 5817 5818 5820 5821 5823 5825 5826 5828 5829 5830 5832 5833 5834 5835 5836 5837 5839 5839 5840 5841 5842 5843 5844 5844 5845 5846 5847 5848 5849 5850 5852 5853 5855 5856 5857 5858 5859 5860 5861 5862 5863 5864
5811 5813 5815 5816 5818 5820 5821 5823 5824 5825 5827 5828 5829 5831 5832 5833 5834 5836 5837 5838 5839 5840 5841 5842 5842 5843 5844 5845 5846 5847 5849 5850 5851 5853 5854 5855 5856 5857 5858 5859 5860 5861 5862
5807 5808 5810 5812 5814 5816 5817 5819 5820 5822 5823 5824 5826 5827 5828 5829 5831 5832 5833 5834 5836 5837 5838 5839 5839 5841 5842 5843 5844 5845 5846 5848 5849 5850 5852 5853 5854 5855 5856 5857 5858 5859 5859
5802 5804 5806 5807 5809 5811 5813 5814 5816 5817 5819 5820 5821 5823 5824 5825 5827 5828 5829 5830 5832 5833 5834 5835 5835 5837 5838 5840 5841 5842 5843 5845 5846 5847 5849 5850 5851 5852 5853 5854 5855 5856 5857
5797 5799 5801 5803 5804 5806 5808 5810 5811 5812 5814 5815 5817 5818 5820 5821 5822 5824 5825 5826 5828 5829 5830 5831 5831 5833 5835 5836 5837 5838 5840 5841 5842 5844 5845 5846 5847 5848 5849 5850 5852 5853 5853
5792 5793 5795 5797 5799 5801 5803 5805 5806 5807 5809 5810 5812 5813 5815 5816 5818 5819 5821 5822 5823 5824 5825 5826 5828 5829 5830 5832 5833 5834 5836 5837 5839 5840 5841 5842 5843 5844 5845 5846 5847 5848 5849
5786 5788 5790 5792 5794 5795 5797 5799 5800 5802 5803 5805 5806 5808 5809 5811 5812 5814 5815 5816 5818 5819 5820 5821 5823 5824 5826 5827 5828 5830 5831 5833 5834 5836 5837 5838 5839 5840 5841 5841 5842 5843 5844
5779 5781 5783 5785 5787 5789 5791 5793 5794 5796 5797 5799 5800 5801 5803 5804 5806 5808 5809 5810 5812 5813 5815 5816 5818 5819 5821 5822 5823 5825 5826 5828 5829 5830 5831 5832 5834 5835 5835 5836 5837 5837 5839
5773 5775 5777 5779 5781 5782 5784 5786 5787 5789 5791 5792 5794 5795 5796 5798 5800 5801 5803 5804 5805 5807 5809 5810 5812 5813 5815 5816 5817 5819 5820 5822 5823 5825 5826 5827 5828 5829 5829 5830 5831 5831 5833
5765 5768 5769 5771 5773 5775 5777 5778 5780 5782 5783 5785 5787 5788 5790 5791 5792 5794 5795 5797 5798 5800 5802 5804 5805 5807 5808 5810 5811 5813 5814 5816 5817 5818 5820 5821 5822 5822 5823 5823 5824 5825 5826
5757 5760 5762 5764 5765 5767 5769 5770 5772 5774 5775 5777 5778 5780 5782 5783 5785 5786 5788 5790 5791 5793 5795 5796 5799 5800 5801 5803 5805 5806 5807 5809 5810 5812 5813 5814 5815 5816 5816 5816 5817 5819 5820
5750 5752 5753 5755 5757 5758 5760 5762 5763 5765 5766 5768 5769 5771 5773 5775 5777 5778 5780 5781 5783 5785 5787 5789 5791 5792 5794 5795 5797 5798 5800 5801 5803 5804 5805 5806 5807 5808 5809 5810 5811 5812 5814
5741 5743 5744 5746 5748 5749 5751 5752 5754 5756 5757 5759 5760 5762 5763 5765 5767 5769 5771 5773 5775 5777 5778 5780 5782 5784 5786 5787 5789 5790 5792 5793 5795 5796 5798 5799 5800 5801 5802 5803 5804 5805 5807
5732 5734 5735 5737 5738 5739 5741 5743 5744 5746 5747 5749 5750 5752 5754 5755 5758 5760 5762 5764 5766 5767 5769 5771 5773 5775 5777 5779 5780 5782 5783 5785 5786 5788 5789 5790 5792 5793 5794 5795 5796 5798 5799
5723 5724 5726 5727 5728 5730 5731 5732 5734 5735 5737 5738 5740 5742 5743 5745 5747 5749 5751 5754 5756 5758 5760 5762 5764 5766 5768 5769 5771 5773 5774 5776 5777 5779 5780 5782 5783 5784 5785 5787 5788 5789 5790
5713 5714 5715 5717 5718 5719 5721 5722 5723 5724 5726 5728 5729 5731 5733 5734 5736 5738 5740 5743 5745 5747 5749 5752 5754 5756 5758 5760 5761 5763 5764 5766 5767 5769 5770 5772 5773 5774 5776 5777 5778 5780 5781
5702 5704 5705 5706 5707 5708 5710 5711 5712 5714 5715 5716 5718 5719 5721 5723 5725 5727 5729 5731 5734 5736 5738 5740 5743 5745 5747 5749 5751 5752 5753 5755 5757 5758 5760 5761 5762 5764 5765 5767 5768 5770 5771
5692 5693 5694 5695 5696 5697 5698 5699 5701 5702 5703 5705 5706 5707 5709 5711 5713 5715 5717 5720 5722 5724 5727 5729 5731 5733 5735 5738 5739 5741 5743 5745 5746 5747 5749 5750 5751 5752 5754 5755 5757 5758 5760
5681 5682 5683 5684 5685 5685 5686 5687 5689 5690 5691 5693 5694 5695 5697 5698 5700 5702 5704 5707 5710 5712 5714 5717 5719 5721 5723 5725 5727 5729 5731 5733 5734 5736 5737 5738 5739 5740 5742 5743 5745 5746 5748
5670 5670 5671 5672 5672 5673 5674 5675 5676 5677 5679 5681 5682 5682 5684 5686 5687 5689 5691 5694 5696 5699 5701 5704 5706 5708 5710 5712 5714 5716 5718 5720 5721 5724 5725 5726 5727 5728 5729 5731 5732 5733 5734
5658 5659 5659 5659 5660 5661 5662 5663 5664 5665 5666 5668 5669 5670 5671 5673 5674 5676 5678 5680 5683 5685 5688 5690 5692 5694 5696 5698 5700 5702 5703 5705 5707 5709 5712 5713 5714 5715 5716 5717 5718 5720 5721
5647 5647 5647 5648 5648 5649 5649 5650 5651 5652 5654 5655 5656 5657 5658 5659 5661 5662 5664 5666 5669 5671 5674 5676 5678 5680 5682 5684 5686 5687 5689 5691 5693 5695 5697 5699 5700 5702 5702 5703 5705 5706 5707
Wind_Speed
16 16 15 15 14 14 13 12 12 11 9 9 8 8 7 7 7 6 6 7 7 7 6 6 6 5 5 6 7 8 8 8 8 7 7 7 6 6 6 5 5 6 6
17 16 16 16 16 15 14 14 13 12 11 10 10 9 9 9 8 8 8 8 8 8 8 8 7 6 6 7 8 8 9 9 8 8 8 8 7 7 6 6 5 5 6
18 18 17 17 17 16 15 15 14 14 13 12 11 11 11 10 10 10 9 9 9 9 9 9 8 7 7 8 8 9 10 10 10 9 9 9 8 8 7 7 7 6 6
19 19 19 19 18 18 17 16 16 16 15 14 13 12 12 12 12 12 11 11 11 10 10 10 10 9 8 8 9 10 11 11 11 10 10 10 10 10 9 9 8 8 8
20 20 20 20 20 19 19 18 18 17 17 16 15 14 14 14 14 13 13 13 13 12 12 12 12 11 11 10 11 11 11 12 12 11 11 11 11 11 11 10 10 9 9
22 21 21 21 21 21 21 20 19 19 18 18 17 17 16 16 16 16 15 15 15 15 14 14 14 14 13 13 13 13 13 13 13 13 13 12 12 12 12 12 12 12 11
23 23 23 22 22 23 23 22 21 21 20 20 20 19 19 19 18 18 18 17 17 17 17 16 17 16 16 16 15 15 15 15 15 15 15 14 14 14 14 14 14 13 14
25 24 25 24 24 24 24 23 23 23 23 22 22 21 21 21 21 21 20 19 19 19 19 19 19 18 18 18 17 17 17 17 17 17 17 16 16 16 16 16 15 15 16
26 26 26 26 26 26 26 25 24 25 25 25 25 24 23 23 23 23 23 22 22 22 21 21 21 21 20 20 19 19 19 19 18 19 18 18 18 18 18 18 18 18 18
28 28 27 27 28 28 28 28 27 27 27 26 26 26 26 25 25 25 25 25 25 24 24 23 23 23 23 22 21 21 21 21 20 21 20 20 20 20 20 20 20 20 20
29 30 30 29 29 29 30 30 30 30 29 29 29 28 28 28 28 28 28 27 27 27 26 25 25 24 24 24 24 23 23 23 22 23 23 23 23 22 22 23 23 22 22
31 32 32 32 32 31 31 32 32 32 31 31 31 30 30 30 30 30 30 29 29 29 28 27 26 26 26 26 26 26 25 25 24 24 25 25 25 25 24 24 25 25 24
33 33 34 34 34 34 34 33 33 34 33 33 33 32 32 32 31 31 31 31 30 30 29 28 28 28 28 28 28 28 27 27 26 26 26 26 27 27 27 27 27 27 26
34 35 35 35 35 36 36 36 35 35 35 35 35 35 34 34 33 33 32 33 33 32 31 30 30 31 31 30 31 30 30 30 29 28 28 28 28 28 28 28 28 29 28
35 35 35 36 36 37 37 37 38 38 38 38 37 37 36 36 35 35 34 34 34 34 33 33 32 32 33 32 32 32 32 32 31 31 31 31 30 29 29 30 30 30 30
36 36 36 36 37 38 38 38 39 40 40 39 39 39 39 38 38 38 37 36 36 36 36 36 35 34 33 33 33 33 33 33 32 33 32 32 31 31 30 31 31 32 32
37 38 39 38 38 38 39 40 40 40 41 41 41 40 41 41 40 39 39 39 39 39 38 38 37 37 36 35 35 35 35 35 34 35 35 34 34 34 33 33 33 33 33
39 40 40 41 41 40 40 41 41 42 42 43 42 42 42 43 42 42 42 41 41 41 41 40 40 40 39 38 38 38 37 37 37 37 37 37 36 36 36 36 36 35 35
40 41 41 42 43 43 43 43 43 43 43 44 44 43 44 44 44 44 44 43 44 44 44 43 42 42 42 41 40 40 40 40 40 40 40 39 39 39 39 38 38 38 38
41 41 42 43 43 44 45 45 45 44 45 45 45 44 44 45 45 44 45 44 45 46 46 46 45 45 44 43 42 42 42 41 41 42 42 42 42 42 42 41 41 41 41
41 42 43 44 44 45 46 46 46 46 47 47 47 47 46 46 46 46 45 46 46 47 47 47 47 47 47 46 45 45 45 44 44 44 44 44 44 44 44 43 43 43 44
42 43 43 44 45 45 46 46 47 47 47 48 49 49 48 48 48 49 49 48 48 48 48 48 48 49 49 49 48 47 47 47 46 46 46 47 47 47 46 45 45 45 46
42 43 44 45 45 46 46 47 47 48 49 49 49 50 50 50 50 50 50 50 50 50 50 50 50 50 51 51 50 50 49 49 49 48 48 48 49 49 48 48 48 48 48
42 43 44 45 46 46 47 47 47 48 49 49 49 49 50 51 51 52 52 51 51 51 51 52 52 52 52 52 51 51 51 51 51 50 50 50 50 50 50 50 50 50 50
42 43 43 43 44 45 46 46 47 47 48 48 49 49 51 52 52 53 54 54 53 53 53 53 54 53 53 54 53 52 52 53 53 53 52 51 51 51 51 50 50 51 51
42 43 43 44 45 45 46 46 47 48 48 48 49 50 51 51 52 53 54 55 55 55 55 54 54 54 55 55 55 54 54 54 54 54 53 53 53 52 52 52 51 50 51
Wind_Direction
237 236 236 237 238 239 239 240 240 241 240 237 237 236 237 239 239 238 238 243 248 249 251 254 254 254 236 217 207 204 205 206 209 207 210 211 209 212 214 209 202 205 213
240 240 238 238 240 240 240 241 242 242 242 242 242 241 240 241 241 242 245 248 252 252 252 251 248 247 232 225 218 214 215 218 217 219 221 222 223 223 227 227 220 215 218
241 242 240 240 240 242 241 243 244 243 244 245 244 243 242 242 243 246 247 249 254 256 252 249 247 245 236 229 226 223 223 226 225 228 228 230 232 233 234 235 234 233 234
241 242 242 241 241 242 244 244 245 246 246 245 245 244 244 245 245 247 249 250 253 255 250 247 245 242 242 238 236 231 231 232 231 233 234 237 239 239 240 241 242 243 244
240 240 241 242 242 244 245 246 246 247 247 246 244 244 245 247 248 249 250 250 250 250 249 246 244 244 245 242 240 236 234 235 236 237 238 241 244 245 245 245 245 246 247
240 241 241 243 244 245 245 245 246 246 246 246 246 246 245 247 249 249 250 250 249 249 249 248 248 250 249 248 246 243 241 240 241 243 244 245 247 249 247 247 248 248 249
242 242 242 243 245 245 246 246 246 246 246 246 246 247 248 248 249 250 249 250 250 250 249 251 251 250 250 249 249 249 247 246 247 248 248 250 252 253 251 250 251 251 253
244 244 243 243 244 245 246 246 247 247 247 247 248 251 252 252 252 252 251 250 250 250 250 251 250 249 250 251 252 253 251 250 250 251 252 253 255 256 254 255 255 255 256
244 244 244 244 244 246 247 246 247 248 249 250 251 251 252 253 253 253 253 253 252 252 253 252 253 252 250 251 253 255 255 254 253 254 254 255 257 257 257 257 258 257 256
244 244 244 245 245 246 247 247 247 247 248 251 253 253 253 253 254 253 254 254 254 253 254 255 254 254 252 251 252 253 254 255 256 255 255 255 256 257 257 258 258 258 257
243 243 244 245 246 247 248 248 248 249 250 251 253 254 254 254 253 254 254 255 254 254 255 255 255 255 253 251 251 252 253 255 256 256 255 256 257 258 258 258 258 259 257
244 244 244 245 247 248 249 249 249 250 251 251 251 251 253 254 253 253 254 255 255 255 254 255 255 256 253 252 253 253 254 255 256 257 257 258 258 259 260 260 260 260 258
245 245 245 246 248 249 250 251 251 250 250 251 251 252 252 253 255 253 255 255 255 255 254 253 253 254 255 254 254 253 254 254 255 257 259 260 260 260 262 263 263 261 259
247 246 246 248 249 249 250 251 252 252 252 251 252 254 254 255 255 254 256 257 256 256 255 254 253 254 256 255 253 253 255 255 256 258 260 261 260 260 262 263 262 261 260
248 248 248 249 249 250 251 252 253 253 254 254 254 254 255 255 256 256 256 256 256 256 256 255 255 255 255 254 254 254 255 257 257 257 260 261 261 261 263 262 261 260 259
249 249 250 250 250 251 252 253 253 253 254 254 255 254 255 255 255 256 255 256 256 256 255 255 255 255 254 254 254 255 256 258 259 259 260 261 261 262 263 262 262 261 261
250 251 251 252 253 254 253 253 254 254 254 254 254 254 255 255 255 255 256 256 256 256 256 256 256 256 256 255 255 255 257 257 258 259 260 261 261 262 262 262 262 262 261
252 253 253 253 254 254 255 255 255 254 254 254 253 254 254 255 255 254 254 254 255 256 257 257 257 256 257 257 257 257 257 257 258 258 259 260 261 262 261 261 261 262 262
254 255 255 255 255 255 255 255 255 254 253 253 253 253 254 254 255 254 254 254 254 255 255 255 256 257 257 258 257 257 257 258 258 258 259 259 260 261 261 262 261 261 261
256 256 256 256 256 256 256 255 255 255 255 254 255 255 254 254 254 255 254 254 254 254 255 255 255 256 256 257 257 257 258 258 258 259 259 260 260 260 261 260 260 260 261
256 257 257 257 257 256 256 256 256 255 256 256 256 256 255 254 254 254 255 254 254 254 255 255 255 256 256 256 257 257 258 258 259 260 261 260 260 260 262 261 261 260 261
258 258 259 259 258 258 257 257 257 257 256 257 257 257 256 256 255 255 255 255 255 255 255 255 256 256 256 256 257 258 259 259 260 261 261 260 260 261 261 261 261 260 261
259 259 259 259 259 259 259 259 260 259 258 258 258 258 258 258 257 256 256 255 255 256 255 256 256 257 256 257 257 258 259 260 259 260 261 261 261 262 262 261 260 260 260
261 261 261 260 259 259 259 260 260 259 259 258 258 257 257 258 258 257 257 256 255 255 256 256 256 257 258 258 258 258 260 260 260 259 260 261 261 261 261 261 261 260 260
262 262 261 261 260 259 259 260 260 260 259 259 258 258 258 258 258 258 258 257 256 256 256 257 256 257 258 258 259 259 260 261 261 260 260 261 260 261 261 262 261 261 260
263 262 261 261 260 260 261 261 260 260 260 259 259 259 259 259 258 258 258 258 258 257 257 257 258 257 258 259 259 260 260 261 262 261 261 261 261 260 260 260 261 261 261